Theta_e
343 345 347 348 347 346 347 345 343 343 343 344 343 342 341 341 340 340 340 338 337 338 338 340 344 345 343 341 339 338 342 344 345 344 343 343 344 346 344 342 340 342 343 343 343 343 343 343 343 342 343 343 343 343 343 343 343 344 345 345 345 345 345 347 345 345 345 344 344 345 345 345 345 345 345 345 345 344 343 342 342 340 340 341 344
342 346 348 348 348 346 346 345 346 344 343 342 340 339 338 339 339 337 336 338 339 340 346 346 345 343 342 341 340 338 340 341 340 342 341 340 343 345 346 346 344 342 343 344 342 340 340 342 342 343 344 343 343 342 342 341 341 343 343 343 344 344 345 344 344 344 344 344 345 344 344 344 344 344 345 345 345 344 342 341 341 340 341 342 343
345 346 348 347 348 348 346 345 345 343 341 341 342 342 341 342 342 341 340 338 339 339 345 345 346 344 342 339 338 339 342 341 341 339 338 342 343 344 346 346 345 344 344 345 345 345 344 343 343 343 342 342 342 342 341 341 340 341 341 341 342 343 343 343 343 343 344 343 344 343 343 342 342 344 345 345 345 343 340 340 341 340 340 342 341
343 345 348 347 346 347 346 346 346 345 344 344 341 339 339 338 338 338 338 340 339 343 345 345 345 343 341 340 338 338 340 340 339 338 339 341 342 343 344 345 344 341 341 342 341 342 342 342 343 342 342 342 342 342 341 341 341 341 341 341 342 342 342 342 341 342 342 342 342 340 340 339 340 341 343 343 343 343 339 340 339 339 341 340 339
343 345 347 347 347 347 347 345 345 345 345 344 343 343 342 339 337 339 340 339 339 341 346 345 345 343 341 339 338 339 341 340 340 340 340 340 342 342 341 341 342 342 342 342 341 340 339 340 341 341 341 340 340 340 339 340 341 341 342 342 342 341 341 341 341 341 341 341 341 339 339 339 339 338 343 344 343 339 338 338 338 339 339 339 339
344 346 347 347 347 348 346 346 346 345 342 341 342 342 341 341 341 339 339 339 339 341 344 344 345 344 343 341 340 339 340 339 340 340 342 341 341 344 344 343 345 344 344 345 344 342 341 340 340 341 341 340 340 340 339 341 342 341 341 342 342 341 340 340 340 340 340 340 339 339 338 339 338 337 342 342 342 337 337 339 339 340 339 339 338
344 346 347 347 347 346 345 346 346 346 346 344 343 342 341 341 338 338 339 339 339 339 344 345 344 344 341 339 338 339 341 341 341 341 341 342 344 344 344 343 343 343 343 343 342 342 342 341 341 341 342 342 341 341 341 342 341 341 341 341 341 340 339 339 339 340 339 338 338 338 338 338 337 337 338 341 338 340 339 340 339 339 338 337 337
345 346 347 347 347 345 345 346 346 345 345 344 344 343 342 343 339 339 339 339 339 340 342 344 345 344 341 340 339 339 341 340 339 340 339 342 343 342 342 341 341 341 341 341 341 341 341 341 341 340 341 341 341 342 341 341 340 341 341 340 339 339 338 338 338 338 338 337 337 337 337 336 336 335 339 340 340 340 340 339 339 338 336 335 333
343 345 346 347 347 343 345 346 345 346 345 345 344 342 342 340 340 340 340 339 340 341 342 343 344 344 342 340 341 340 339 338 338 338 339 339 339 339 339 340 340 340 339 342 343 342 342 341 341 340 341 341 341 341 340 341 340 340 340 340 339 338 338 338 338 337 335 336 336 336 336 336 336 335 338 338 337 337 336 335 336 336 334 332 331
343 345 346 346 348 342 344 346 345 346 346 345 343 344 343 340 339 339 340 340 339 340 342 343 344 343 342 339 339 339 338 339 338 337 337 338 339 340 340 339 339 339 339 340 341 341 341 341 340 341 340 340 340 340 340 340 339 339 339 338 338 337 337 337 337 335 334 335 335 335 335 336 335 334 337 337 336 335 332 331 331 331 330 331 331
343 344 346 346 348 342 346 347 346 345 346 345 344 343 342 342 341 340 339 339 340 339 340 344 344 343 343 341 340 339 338 337 337 336 336 337 342 342 341 340 340 339 339 339 340 341 340 340 340 340 341 340 340 339 339 339 339 338 338 337 337 337 337 337 335 334 334 334 334 334 334 335 333 335 337 336 335 333 331 330 330 331 330 331 331
342 344 345 346 345 341 345 346 346 345 345 345 345 344 343 343 340 340 340 339 339 338 339 341 343 343 342 342 340 339 338 337 336 336 335 338 341 342 341 340 339 339 339 340 340 340 340 340 340 340 339 339 339 339 338 338 338 338 337 336 336 336 336 335 333 333 334 333 334 333 333 332 332 332 334 334 334 333 331 331 331 332 332 331 331
342 344 345 347 349 340 343 345 346 346 345 345 345 344 343 342 342 341 340 339 339 339 339 342 343 342 342 342 340 340 338 337 336 335 334 337 338 339 340 339 339 340 339 339 339 340 340 340 340 339 339 339 338 338 338 337 337 336 335 335 334 334 335 333 333 332 332 333 332 333 332 332 331 332 333 333 333 333 331 330 330 330 330 329 329
342 343 345 346 346 345 340 343 344 346 345 345 345 344 343 343 342 341 339 339 339 338 339 342 341 342 341 341 340 339 338 337 336 335 334 335 336 337 338 339 339 338 337 339 339 339 339 339 339 338 338 338 337 337 337 337 336 335 334 333 333 333 331 331 332 332 331 331 331 330 330 330 330 333 332 332 331 330 330 329 328 328 329 328 328
342 344 345 346 346 348 342 340 342 343 344 345 344 344 344 343 342 341 339 339 339 339 338 338 341 341 341 341 340 338 337 336 335 335 334 333 337 337 337 337 337 336 336 338 338 338 338 339 339 338 338 337 337 336 336 336 335 333 333 332 332 332 330 330 330 331 329 329 329 329 329 328 330 330 331 330 330 329 329 327 328 328 327 327 326
343 344 345 346 346 347 348 343 338 340 341 342 343 343 343 342 341 341 340 339 339 338 338 338 340 341 341 340 339 338 337 336 335 335 338 337 336 336 336 336 337 336 336 337 337 337 337 338 338 337 337 337 336 336 335 334 333 332 331 330 331 329 327 327 330 330 329 328 328 328 328 328 329 329 328 329 329 328 328 327 327 326 326 326 325
343 344 344 345 346 346 346 347 342 335 336 338 338 340 341 342 342 340 340 339 338 338 338 340 339 340 340 339 338 337 337 335 335 335 337 337 336 338 337 337 336 335 335 335 335 336 336 337 336 336 336 336 336 335 335 333 332 331 330 329 330 328 326 326 329 328 327 327 327 325 324 325 327 327 327 328 327 327 327 326 326 326 325 324 323
343 344 343 343 345 345 346 347 347 346 347 340 334 336 339 340 340 340 339 340 339 339 339 339 338 337 336 336 337 337 337 337 336 336 337 336 337 338 337 335 335 334 334 334 334 335 336 336 336 335 336 335 335 334 333 332 331 330 329 329 328 326 325 324 328 328 327 327 325 327 326 328 327 327 328 327 327 326 326 325 325 324 324 323 323
341 342 342 343 343 344 345 346 346 345 345 346 346 343 334 336 337 337 337 337 336 335 334 334 333 333 332 331 331 330 329 329 330 331 334 334 333 332 335 335 334 334 334 334 333 334 335 334 335 335 335 334 334 333 332 331 330 329 328 327 326 324 324 326 329 328 326 324 327 326 325 327 328 328 327 327 325 325 325 324 324 324 323 322 322
339 341 341 342 343 344 344 345 345 345 345 346 343 345 334 332 334 334 334 333 332 331 331 329 326 326 326 327 327 330 329 330 326 330 327 331 330 331 332 335 334 334 334 333 333 333 333 333 334 334 334 333 332 330 330 330 329 328 327 326 324 322 329 329 329 328 327 325 326 325 328 328 327 327 326 326 325 325 324 324 323 322 321 324 323
337 339 340 340 342 343 343 344 344 344 344 345 344 343 340 331 331 328 328 328 328 327 325 323 321 321 323 323 325 333 333 331 332 333 327 334 323 325 330 334 335 334 333 333 332 332 332 333 332 333 332 330 327 326 326 328 328 327 326 325 322 329 329 328 328 327 327 326 326 326 327 326 326 327 326 325 325 325 323 323 322 321 321 324 321
335 337 339 340 340 341 342 342 343 344 344 344 344 343 342 337 341 339 337 331 327 326 331 335 330 333 323 330 332 331 331 332 332 331 333 334 332 323 326 330 333 333 332 332 331 331 331 331 331 330 328 326 324 329 325 322 323 324 323 321 328 328 329 328 327 326 326 326 325 324 327 326 325 325 326 324 324 323 323 322 321 320 323 322 321
334 336 338 340 340 340 342 341 342 344 344 343 343 343 342 341 341 339 337 332 333 336 335 334 335 334 334 333 329 330 331 331 331 330 330 321 328 323 325 328 329 329 330 330 329 329 328 328 327 325 324 322 328 330 329 328 326 318 319 328 328 328 328 327 327 326 325 324 324 326 326 324 325 326 324 325 324 323 322 321 319 321 322 321 320
334 336 337 339 340 339 340 341 341 343 342 342 343 342 341 341 340 338 337 336 335 336 336 336 335 334 334 332 330 331 331 330 322 323 327 333 328 320 320 321 323 324 324 326 325 325 324 323 321 319 321 324 330 328 329 329 328 328 328 327 328 328 328 327 326 325 325 324 324 324 325 324 324 324 324 324 323 322 322 321 319 321 321 319 319
335 337 338 337 338 339 339 340 342 342 342 341 341 340 341 339 338 338 337 336 335 335 334 335 335 334 333 331 331 331 330 329 330 330 330 330 331 332 331 331 330 328 322 328 326 323 323 323 321 322 326 326 326 327 327 327 326 326 326 326 326 327 327 327 326 325 325 325 323 323 325 325 324 324 324 323 323 321 320 319 320 320 319 318 318
337 335 336 337 339 339 339 339 341 341 341 341 340 340 339 338 337 336 336 336 336 334 333 333 333 333 333 332 330 330 329 329 330 329 329 330 330 329 329 329 329 328 326 326 324 323 323 324 325 323 323 324 324 324 325 325 325 324 324 324 324 324 325 325 325 325 324 324 323 322 324 324 323 324 323 322 322 321 320 320 320 320 319 318 318
335 336 337 338 339 339 339 339 339 340 340 341 341 340 340 339 336 336 335 333 334 332 331 331 332 333 332 331 329 328 327 327 328 328 327 329 328 329 327 328 328 327 326 324 322 322 323 322 322 322 321 321 321 322 321 322 322 322 322 321 320 320 320 322 325 325 324 323 322 320 323 323 321 323 322 323 322 321 321 319 321 320 318 318 317
335 335 336 337 338 338 339 338 338 339 339 340 340 340 340 339 337 334 335 331 331 331 330 330 332 331 331 330 328 328 326 325 327 327 326 327 327 327 327 326 326 325 325 324 321 320 320 321 321 321 320 320 320 320 320 320 320 321 320 319 319 317 317 318 322 325 324 323 324 321 322 323 323 321 321 322 322 321 320 320 320 319 318 319 317
333 335 336 336 338 338 339 337 337 338 338 339 339 339 340 340 336 335 335 329 334 332 330 330 330 330 331 331 329 328 327 326 326 326 326 325 325 326 325 325 324 323 323 321 321 320 320 320 320 320 320 320 319 319 318 319 319 319 318 316 316 315 317 319 321 322 324 323 322 320 320 322 324 323 321 320 320 319 319 320 321 319 318 318 316
332 334 335 336 338 338 338 338 337 338 338 338 338 339 339 338 336 335 336 332 335 333 331 329 330 329 330 330 330 328 327 325 325 325 324 323 323 324 324 323 323 322 322 320 320 320 319 319 319 319 319 319 318 317 318 317 316 315 314 312 311 313 314 316 318 319 322 323 322 322 315 320 323 323 322 322 321 320 320 319 319 319 319 318 316
332 332 334 335 336 338 338 338 339 338 339 338 339 338 339 339 336 337 337 335 336 334 331 330 330 329 329 330 330 329 327 326 325 323 324 323 322 323 323 322 321 320 321 320 319 319 319 319 319 318 318 318 317 316 316 316 313 310 307 307 307 307 308 311 314 316 319 320 321 322 321 315 319 322 322 320 320 319 319 319 318 318 320 317 316
331 332 333 336 336 336 338 339 338 339 338 338 338 338 339 339 338 338 338 337 337 335 334 332 329 329 329 330 329 329 328 327 325 324 323 322 322 321 321 320 321 319 319 319 317 318 318 318 317 317 317 316 315 314 313 313 311 307 307 307 306 306 307 311 312 312 314 316 318 319 320 319 312 315 320 322 318 317 318 317 317 317 318 318 317
332 333 333 334 335 336 334 336 338 337 337 338 339 339 340 339 339 337 337 336 336 335 333 331 332 331 330 330 329 329 327 327 325 324 322 321 321 321 320 320 320 319 319 318 317 316 315 314 314 314 314 314 313 312 311 311 308 306 306 304 303 302 301 303 305 307 309 312 314 315 318 318 318 312 313 317 320 316 316 317 317 315 317 316 317
332 332 333 332 334 336 338 336 335 334 336 338 338 338 338 339 340 338 334 335 334 333 331 331 332 332 330 330 330 329 327 327 326 324 322 319 319 319 318 318 319 318 317 316 314 315 314 314 313 312 311 313 313 312 311 309 305 303 303 301 299 300 302 304 302 303 305 308 311 313 314 315 315 317 319 312 314 319 317 317 316 316 316 315 315
331 331 331 332 332 334 336 336 336 336 335 335 338 338 338 339 340 339 336 335 334 333 332 332 333 332 331 330 330 329 328 328 327 324 322 320 318 317 317 318 317 316 315 315 315 314 314 313 312 313 312 313 313 311 311 308 304 302 301 301 301 301 300 300 301 302 302 304 307 310 311 312 313 314 316 317 311 313 319 317 316 315 315 314 314
330 330 331 332 331 332 334 335 336 336 337 335 337 338 337 338 339 334 337 336 334 334 335 334 332 331 330 331 330 329 328 328 327 325 323 321 319 318 317 317 315 314 314 313 312 312 312 312 312 313 312 311 310 308 308 306 305 302 299 299 298 299 301 301 299 298 298 302 305 306 308 309 310 310 308 314 315 312 312 318 318 315 315 314 314
329 329 329 329 330 331 330 332 334 335 336 336 336 337 338 337 337 338 337 335 335 334 333 332 331 331 330 330 328 328 327 327 327 326 324 322 320 319 318 316 313 313 312 311 311 311 310 310 310 311 313 310 308 306 304 303 301 298 297 297 297 298 299 299 299 298 298 300 303 303 305 306 305 302 308 310 312 314 309 310 315 316 318 313 313
327 328 329 329 329 330 330 330 331 334 335 336 336 336 336 338 338 336 336 335 335 334 332 331 331 331 331 328 327 327 326 326 326 327 325 322 320 319 315 313 310 309 310 309 308 307 307 308 307 308 309 308 308 304 300 298 298 297 295 295 295 295 295 296 296 296 298 299 300 300 300 301 302 303 304 305 308 310 311 308 308 310 310 315 315
326 326 327 328 328 328 328 329 329 330 330 330 331 333 334 335 336 336 335 335 333 334 334 332 332 332 331 330 327 327 326 326 326 325 324 320 316 315 311 309 307 307 307 306 307 306 306 307 307 306 305 305 305 304 300 297 296 295 293 292 292 292 293 293 293 294 295 295 295 294 296 297 298 299 301 303 305 308 309 311 312 313 311 308 313
324 325 325 327 326 326 326 326 328 329 330 331 331 330 330 329 329 332 333 332 333 329 331 332 332 331 330 330 329 328 326 324 325 325 323 321 318 314 310 307 307 306 305 304 306 305 305 304 306 305 304 302 302 301 299 297 296 294 292 291 291 292 293 293 292 292 292 293 291 292 294 294 295 297 298 301 304 305 307 308 308 309 310 307 306
322 323 324 325 325 324 324 323 325 327 327 329 329 329 327 328 328 327 328 331 331 331 330 329 329 331 330 330 330 329 328 325 326 326 323 317 317 314 309 307 306 305 306 306 306 305 305 305 305 305 303 300 298 297 297 298 297 295 294 293 293 292 291 290 290 291 291 290 290 290 291 293 295 297 298 299 301 302 303 304 305 305 307 308 307
320 321 322 323 324 325 324 323 324 324 324 326 328 329 329 327 328 328 329 330 330 329 329 329 327 327 328 329 329 329 329 327 324 323 321 319 317 313 310 308 307 306 306 306 307 305 305 304 305 302 302 300 299 298 297 299 297 299 295 294 293 294 292 291 290 290 290 290 289 289 293 294 295 296 295 297 298 297 297 298 300 303 304 306 307
318 320 321 322 323 324 324 324 323 323 324 324 325 326 328 329 328 328 329 330 333 332 332 331 329 327 327 328 329 329 328 327 325 323 322 321 319 316 313 310 307 306 306 305 306 305 305 304 302 302 300 301 300 297 298 301 300 302 301 298 295 294 296 294 294 291 290 291 291 291 292 293 293 293 292 293 295 296 295 295 297 300 301 303 304
313 317 319 321 322 322 323 323 323 323 323 324 324 326 326 328 328 329 329 329 328 329 331 329 329 327 326 324 324 326 327 327 327 325 323 322 320 318 314 309 306 305 305 305 305 305 305 305 304 303 302 298 296 295 297 299 301 300 296 298 295 295 296 299 296 295 290 290 290 289 289 290 291 290 290 291 293 292 292 293 294 296 298 300 302
310 312 316 319 320 321 322 323 323 322 323 323 324 325 325 324 320 319 321 320 321 324 325 323 325 324 324 322 322 323 324 324 324 324 322 322 321 319 314 310 308 306 306 306 306 305 304 304 302 302 300 300 298 298 296 297 299 303 302 294 290 291 295 298 298 296 289 290 290 288 288 289 290 292 290 290 290 289 289 290 292 293 296 297 298
308 311 314 317 319 321 322 323 323 323 322 322 323 323 321 321 317 317 317 317 318 318 318 320 320 320 323 326 325 324 323 323 322 322 323 321 321 320 317 312 309 307 306 306 305 305 305 303 302 302 301 303 304 299 295 296 298 298 298 301 299 300 299 296 297 294 289 291 292 289 288 288 289 289 289 288 288 288 288 289 289 290 292 294 295
307 311 313 315 317 319 321 322 322 321 321 321 322 321 320 320 319 320 321 320 320 321 323 324 324 324 325 326 326 323 324 323 321 321 321 321 321 321 319 316 312 308 306 305 305 304 304 304 303 303 302 302 304 300 298 296 296 296 296 296 294 290 293 295 294 292 291 290 287 288 287 287 287 287 287 288 288 286 286 286 287 288 290 293 294
308 311 311 313 315 317 320 320 321 320 320 320 320 320 320 320 320 320 321 321 321 322 323 324 325 325 324 323 324 322 321 322 322 321 321 320 319 319 317 315 312 308 306 306 306 306 304 304 303 303 303 302 302 302 300 298 294 295 296 295 293 292 290 293 292 294 294 291 289 287 287 287 286 287 287 287 287 286 285 285 286 288 289 291 293
308 310 311 313 315 317 318 319 319 319 319 319 319 319 319 320 320 320 320 321 322 323 324 324 323 323 322 322 322 322 322 321 321 322 322 321 319 319 318 315 314 312 307 307 307 306 305 304 302 301 301 301 302 302 301 298 297 297 298 296 296 293 292 291 291 288 290 292 294 288 286 287 287 287 287 286 286 286 285 285 286 287 288 290 292
308 311 313 314 315 316 317 317 318 318 318 318 318 319 319 319 320 320 320 321 321 323 322 321 320 321 320 321 321 321 322 321 320 321 321 321 320 319 317 315 313 312 308 307 306 306 305 303 302 301 300 300 300 300 301 302 299 299 301 300 297 295 292 290 289 287 287 289 291 290 288 286 283 285 287 285 285 285 286 286 286 287 287 288 290
308 310 312 313 314 315 315 315 317 317 317 317 317 318 319 319 320 320 321 321 322 321 319 318 318 317 318 320 320 320 320 319 319 319 319 319 319 318 317 316 315 312 309 307 306 306 305 303 303 302 300 300 300 299 299 301 301 299 299 299 298 297 294 292 297 291 288 288 287 288 290 288 286 286 289 287 286 285 285 286 286 287 287 287 289
Wind_Speed
8 9 8 6 8 10 11 12 12 12 12 12 12 12 11 12 12 12 11 12 10 11 11 12 14 15 15 15 14 12 16 18 17 15 13 15 17 16 14 15 16 17 17 16 16 17 17 16 16 15 16 17 18 18 18 19 19 19 19 19 19 19 19 20 21 20 19 21 21 20 20 20 20 21 21 21 21 20 17 18 17 17 16 19 21
11 9 7 9 8 10 11 12 12 12 12 12 12 12 12 12 11 12 11 11 11 10 13 14 15 14 14 13 13 12 15 15 15 15 14 14 16 17 18 17 17 18 17 16 16 16 17 17 17 18 17 18 18 18 19 20 20 20 20 20 20 20 20 19 18 17 19 19 20 21 22 22 21 22 22 23 23 22 19 20 20 16 14 22 23
10 9 8 10 8 9 11 12 12 13 12 12 12 12 11 11 11 10 10 10 8 9 14 13 14 15 14 13 12 14 17 15 14 13 13 15 14 16 17 17 17 17 17 19 18 18 18 17 17 17 17 17 17 18 18 19 19 19 20 20 20 20 19 18 17 14 12 17 19 20 20 22 23 22 23 25 25 24 22 23 22 20 17 24 23
11 9 9 9 7 8 11 12 12 12 12 13 12 12 12 11 11 11 11 11 9 11 14 14 13 16 14 14 12 14 16 15 15 13 14 15 14 15 16 17 16 17 16 17 17 17 17 17 18 18 18 17 18 18 18 18 18 19 19 20 20 20 19 18 17 15 14 14 14 14 13 15 17 22 24 23 25 24 23 24 25 25 26 25 25
10 9 9 10 10 9 10 11 12 12 12 12 12 12 12 12 11 11 9 9 7 11 15 14 14 16 15 14 12 15 16 14 14 14 14 14 15 14 13 14 17 17 17 18 18 17 17 17 18 17 17 17 18 18 18 18 18 19 19 20 20 19 18 17 15 16 15 12 11 14 13 15 14 19 23 24 23 22 22 23 24 25 25 26 26
10 9 9 9 9 10 9 11 11 12 12 13 12 12 12 12 11 10 9 9 9 10 11 13 14 15 15 14 14 15 14 14 14 14 14 14 14 15 15 16 18 16 17 18 19 18 18 18 17 17 17 16 16 17 18 18 19 19 20 20 19 18 16 15 14 13 12 10 12 12 14 14 13 12 23 23 23 21 23 24 24 24 24 25 25
11 8 9 9 8 10 9 10 11 11 12 12 12 11 11 12 12 10 9 9 9 9 12 12 12 13 15 14 13 14 16 14 14 13 13 14 15 15 16 15 16 17 16 18 18 17 17 17 17 17 17 17 17 18 18 19 19 19 19 19 19 18 17 16 14 12 11 11 11 12 12 14 14 10 21 21 20 25 23 25 23 23 24 24 24
9 7 9 8 8 10 8 10 11 11 12 12 12 11 11 11 11 10 10 9 8 9 12 12 12 11 14 14 14 15 15 13 13 13 13 13 14 14 13 14 15 15 16 17 17 17 16 17 17 17 17 17 17 17 18 19 19 19 19 19 18 16 15 15 13 12 12 12 12 12 12 14 14 11 18 22 23 24 24 24 22 23 23 23 18
9 9 9 8 9 11 9 9 11 12 12 12 11 11 11 10 10 9 9 8 9 10 11 12 12 11 10 13 16 16 14 13 13 13 12 12 13 13 14 14 14 15 16 16 16 17 16 16 16 16 16 17 17 18 18 19 19 19 19 18 17 15 12 10 11 13 13 11 13 13 13 13 13 14 21 24 23 22 21 19 19 22 23 22 22
9 9 8 8 10 9 9 9 11 11 12 12 11 10 10 10 9 9 9 8 7 11 10 13 13 11 10 11 12 14 14 14 13 12 12 12 13 13 14 14 14 13 14 14 15 15 16 16 16 16 16 17 17 17 18 18 18 18 18 17 15 14 14 14 14 14 13 14 15 16 14 13 14 13 20 23 24 25 24 21 18 17 17 23 23
10 9 8 8 12 9 9 9 10 11 11 12 11 10 10 10 9 9 9 9 10 9 10 14 13 10 10 12 13 14 14 13 12 13 11 11 14 14 15 15 14 13 13 13 15 15 15 16 15 16 16 17 17 17 18 18 18 18 18 16 13 11 13 12 13 12 12 14 14 14 14 16 13 10 20 22 22 23 22 22 20 19 20 20 20
10 9 8 8 11 7 8 9 10 11 11 11 12 11 10 10 9 9 8 9 9 8 9 12 14 12 10 11 13 13 13 12 12 11 11 12 13 13 13 13 13 13 14 14 14 14 15 15 15 15 16 16 17 17 17 17 17 18 17 14 12 12 11 12 13 11 12 14 14 13 14 14 14 15 22 21 21 21 21 21 21 20 20 20 20
10 9 8 9 10 6 7 8 9 10 11 11 11 11 10 10 9 9 9 9 9 9 9 12 13 13 12 11 12 12 12 12 12 11 10 12 12 13 13 13 14 13 13 13 14 14 14 15 15 15 16 16 16 16 16 17 18 16 15 14 11 9 8 12 12 11 11 11 11 13 14 13 13 19 19 20 20 20 20 20 20 20 20 20 20
10 9 8 9 9 8 7 8 8 9 10 11 12 11 10 10 9 9 9 9 10 9 10 12 12 12 12 11 11 11 11 11 11 11 9 11 11 12 12 13 13 13 13 13 13 13 14 14 15 15 15 15 16 16 17 17 16 14 12 11 10 10 11 12 13 12 11 12 11 12 12 11 12 19 20 20 19 20 20 19 19 19 19 19 20
10 10 9 8 9 10 8 7 7 8 9 10 10 10 11 10 10 9 9 9 10 9 8 10 11 12 12 11 12 11 10 10 10 10 9 9 12 11 11 12 12 12 13 13 13 13 13 14 14 14 15 15 16 16 16 16 14 13 12 10 8 6 8 10 10 10 10 10 10 11 11 10 16 18 19 19 19 19 19 19 19 19 19 19 19
10 9 8 8 9 9 9 8 7 7 8 9 9 9 9 10 10 9 9 9 10 9 9 9 11 12 12 11 11 11 10 9 9 8 5 6 11 11 11 11 12 12 12 13 13 12 13 14 14 15 15 15 15 15 15 14 14 13 11 10 7 8 8 7 9 10 9 9 11 11 12 12 17 18 17 18 19 18 18 18 18 19 18 18 19
10 8 8 8 8 8 8 10 9 8 9 9 9 9 9 9 10 9 9 9 9 9 9 10 11 12 11 11 11 10 8 8 7 6 4 5 9 12 12 12 12 11 11 11 12 12 13 14 14 14 15 15 15 15 14 14 14 12 10 9 8 8 8 8 9 9 8 10 10 9 9 10 15 17 17 17 17 17 17 18 17 17 18 18 17
9 10 9 8 8 8 8 9 10 10 10 9 9 9 9 9 9 9 7 7 8 9 9 9 11 11 10 9 9 8 7 8 8 8 7 7 9 11 10 11 11 11 11 10 11 12 13 14 14 14 15 15 15 14 14 14 13 11 9 8 9 8 9 11 10 10 10 9 10 11 10 14 16 16 18 18 17 17 17 17 16 16 17 18 18
9 9 9 9 9 7 8 8 9 9 10 8 9 9 9 9 9 9 8 8 8 9 10 10 10 10 10 10 10 10 10 9 9 9 8 9 11 10 9 8 10 11 11 10 10 12 12 12 13 13 14 15 14 14 13 13 12 11 9 8 8 8 8 9 9 9 8 9 10 9 10 15 15 16 17 16 17 16 16 16 16 16 16 16 17
8 9 9 8 8 8 8 7 8 8 8 7 8 10 9 10 9 9 9 9 9 10 10 10 10 10 10 10 9 9 7 7 7 8 9 8 8 9 8 8 10 10 11 10 10 10 11 10 11 12 13 13 13 13 12 12 11 9 7 9 7 7 7 8 9 8 6 9 9 8 10 15 15 15 15 16 16 16 16 15 16 16 15 19 19
6 9 8 8 9 9 9 7 8 8 8 8 7 9 10 10 9 10 10 9 9 10 10 11 10 8 9 8 7 6 6 5 5 6 7 7 8 9 8 8 10 10 10 10 9 9 10 10 11 12 12 11 10 11 10 10 9 8 6 5 5 6 8 8 8 8 8 8 9 10 12 10 13 16 15 16 16 15 15 15 14 14 15 19 17
8 8 9 9 8 8 9 8 8 9 7 6 6 7 8 8 9 9 7 8 8 9 8 7 8 7 7 6 4 5 4 4 6 6 7 8 8 9 10 10 9 8 8 10 10 9 9 10 10 10 10 10 7 7 7 7 7 5 4 3 5 7 7 7 8 8 9 9 10 9 9 14 15 13 16 14 13 13 13 14 14 13 18 16 16
9 8 8 10 8 7 9 9 9 9 9 8 6 7 9 7 8 7 7 7 7 6 6 7 6 6 5 5 4 4 5 4 4 6 6 11 9 10 11 11 11 11 10 10 9 9 9 9 9 8 8 4 4 7 7 6 5 4 3 3 6 6 8 8 7 7 8 8 8 8 8 13 14 16 14 15 16 15 14 14 12 16 16 16 15
9 8 8 8 9 8 9 9 9 9 8 7 7 7 8 7 7 6 6 6 6 5 5 5 5 6 5 4 4 5 5 5 7 8 7 7 8 11 13 13 12 11 12 9 10 11 10 8 6 6 5 4 5 5 7 7 7 5 4 5 6 8 8 8 7 6 7 8 8 9 10 12 14 14 13 13 13 14 15 14 11 16 15 15 14
8 8 7 8 10 10 9 9 10 9 9 8 7 8 6 7 7 7 6 6 6 5 5 5 5 5 5 4 5 5 5 6 6 6 5 7 8 8 7 7 7 6 5 6 5 5 4 5 5 4 3 3 4 4 4 5 5 4 4 4 5 6 7 7 7 7 7 7 8 6 7 13 15 13 15 14 13 13 11 12 12 14 14 13 14
8 9 9 9 10 9 10 9 10 10 10 8 8 7 7 7 7 7 6 6 6 5 5 5 5 5 4 5 5 5 5 5 5 5 5 7 7 6 6 6 6 6 4 4 5 4 5 6 5 3 3 2 3 3 3 4 5 4 4 3 4 4 4 5 7 8 8 7 8 7 9 12 12 13 12 13 14 13 12 13 13 14 12 13 12
10 10 9 9 10 10 10 10 10 10 11 10 9 8 8 6 7 7 7 6 6 5 4 4 4 5 5 6 5 5 5 5 5 5 5 6 6 7 6 6 6 4 5 3 5 5 4 4 4 3 3 3 3 3 3 3 3 4 4 3 3 3 3 3 5 7 8 8 7 6 9 9 10 14 14 13 13 14 14 11 16 15 12 13 12
11 13 11 10 10 12 11 11 10 10 10 10 10 9 9 8 7 7 6 6 5 5 4 4 4 5 5 5 5 5 5 5 6 6 5 5 6 5 6 5 5 4 4 3 5 5 4 4 4 4 4 4 4 4 4 4 3 4 5 4 3 3 2 2 3 5 7 7 8 8 9 8 7 9 12 14 15 12 11 13 14 13 12 14 12
13 14 12 12 12 12 12 12 11 12 10 10 10 8 9 9 8 8 8 8 7 6 6 5 5 5 5 5 5 5 5 5 6 6 5 5 4 4 4 4 4 4 3 4 5 5 4 4 4 5 4 5 4 4 4 4 4 3 4 4 3 3 2 2 3 3 5 8 8 8 8 9 9 9 10 9 9 9 11 13 14 12 13 13 12
14 14 13 13 11 12 14 14 12 11 10 10 9 9 10 9 8 8 8 7 9 7 8 6 6 6 6 6 5 5 5 5 6 5 6 5 5 5 4 4 4 4 4 4 5 5 5 5 5 5 5 5 4 4 4 4 3 3 3 3 2 2 1 2 2 2 3 5 7 5 1 8 9 11 14 13 14 13 11 10 12 12 13 12 12
12 14 14 13 11 13 14 14 13 9 10 10 10 10 10 11 9 8 9 9 10 8 8 6 5 6 6 7 7 6 5 5 5 6 6 6 6 6 6 5 5 4 4 5 5 5 5 5 5 6 6 5 4 4 3 4 3 3 2 2 2 2 2 2 2 2 2 3 4 4 3 5 2 8 10 12 12 11 11 13 12 13 15 12 12
13 13 12 12 12 15 14 14 14 13 11 12 10 10 10 11 10 10 11 11 12 9 8 8 8 7 7 7 8 7 7 5 6 6 6 7 7 7 6 6 6 5 5 5 6 5 5 4 4 4 5 5 5 4 3 4 4 2 2 3 2 2 1 1 1 1 1 1 2 3 4 3 6 6 4 6 9 7 11 10 11 10 12 14 12
10 12 12 13 15 15 14 15 14 14 14 15 13 12 10 10 8 8 7 8 7 10 8 8 8 8 8 9 8 8 7 7 7 8 8 7 7 7 7 7 7 6 6 7 7 5 4 5 4 4 5 5 5 5 3 3 3 3 2 2 2 2 3 2 2 2 2 1 1 1 2 2 2 4 7 2 7 7 8 11 10 9 11 11 12
9 9 12 14 11 8 7 9 14 14 14 12 12 11 12 10 10 9 6 8 7 7 5 6 8 8 9 10 9 10 9 9 8 8 7 6 7 7 7 7 7 7 6 6 6 6 6 6 6 5 5 5 6 6 5 5 3 2 2 2 2 1 1 1 1 1 1 0 0 1 1 2 2 2 2 5 4 5 11 10 11 10 10 11 11
9 9 13 13 13 12 9 8 10 14 14 14 14 14 12 12 11 10 9 10 9 10 8 7 7 7 8 9 11 10 10 9 9 8 8 7 7 7 7 7 6 6 6 6 6 5 5 6 6 7 6 5 5 5 5 5 4 4 2 1 1 1 1 1 1 1 0 1 0 1 1 1 2 2 2 4 4 8 6 11 12 9 10 10 10
13 11 10 11 13 14 12 11 10 12 10 12 12 12 11 10 10 6 8 10 8 9 11 9 7 6 7 8 10 9 10 9 9 9 8 8 8 8 8 7 7 6 6 6 5 6 5 5 6 6 7 6 5 5 4 4 3 3 2 1 1 0 1 1 0 1 1 1 1 1 1 1 0 1 1 2 2 3 8 7 2 9 11 11 11
12 12 12 12 13 14 13 16 14 13 14 11 11 12 10 12 12 9 8 7 8 9 8 5 4 4 5 6 7 7 9 9 9 10 8 8 8 8 6 7 7 7 6 6 7 5 5 5 5 5 6 7 7 6 4 4 4 3 2 2 2 1 1 1 1 0 1 1 2 1 1 1 1 1 2 1 2 3 5 6 8 10 7 5 12
12 13 12 12 13 12 13 14 16 15 13 12 12 10 8 10 10 10 9 8 8 7 7 8 8 8 7 7 7 8 8 8 9 9 9 8 8 8 6 7 6 5 5 5 5 4 4 4 4 4 4 4 6 7 5 4 4 3 3 2 1 1 1 1 1 2 2 1 1 0 0 1 1 0 0 0 1 2 3 4 6 8 7 7 2
10 13 13 12 11 11 12 13 14 15 15 15 14 14 9 10 10 8 8 10 7 7 7 8 8 11 11 10 7 7 7 6 7 8 8 5 4 3 4 6 5 5 5 5 4 3 3 4 5 5 2 2 2 4 4 4 4 4 3 2 1 3 2 2 2 1 2 3 3 3 2 1 0 1 1 1 1 2 2 3 4 4 3 6 5
11 11 14 13 13 13 12 12 14 14 12 11 11 12 10 7 8 7 9 8 8 6 5 6 8 9 11 12 11 9 9 9 9 8 7 4 4 3 4 5 5 5 5 6 7 8 9 7 7 7 7 3 1 3 5 6 4 3 2 2 2 1 2 3 3 2 1 1 2 2 2 1 1 1 1 1 1 1 2 1 2 2 3 2 5
12 12 13 14 15 14 14 16 14 14 13 12 10 11 12 10 6 9 11 10 10 7 6 6 5 7 9 9 12 11 10 9 10 9 7 6 6 4 5 6 6 7 7 10 8 6 6 7 6 5 8 7 4 3 4 6 7 3 2 3 2 1 1 1 3 3 3 2 1 2 2 3 2 2 2 1 1 1 0 1 1 1 2 3 2
13 14 15 16 15 16 16 14 12 14 15 15 13 12 13 14 12 10 8 8 9 9 9 7 6 5 6 7 8 9 9 7 5 8 7 8 7 7 8 9 9 9 8 5 5 5 6 7 7 5 4 6 4 5 6 7 4 8 6 4 3 2 3 3 4 5 4 3 2 2 3 4 4 2 1 2 1 1 1 1 1 1 2 3 4
12 14 15 13 14 14 14 14 14 14 14 14 14 15 14 12 12 11 11 9 8 8 10 10 7 6 5 7 9 10 9 7 8 9 9 10 10 9 9 9 9 7 6 7 9 9 10 11 9 8 7 4 2 2 6 10 5 3 2 4 3 4 4 2 5 8 5 4 2 3 4 5 4 2 1 2 2 2 1 1 1 2 2 3 3
10 11 12 14 12 12 13 13 13 14 13 14 11 13 11 9 11 8 10 9 8 7 9 4 7 8 7 5 4 6 9 9 11 11 7 8 9 8 6 6 6 7 8 9 11 11 10 7 7 7 6 5 5 6 9 10 3 9 4 6 1 1 3 11 10 5 5 5 5 5 4 5 4 3 2 4 3 2 2 2 2 3 3 3 3
10 11 11 12 10 14 13 13 12 13 13 12 14 12 8 8 4 4 2 2 1 5 7 7 8 7 6 7 8 7 7 7 7 8 8 8 7 6 6 7 6 7 7 9 9 9 10 9 9 9 10 10 9 7 8 9 9 6 4 5 2 1 9 1 4 6 5 5 9 7 6 5 6 5 5 4 3 3 2 3 3 3 4 4 4
10 11 10 10 10 10 11 11 10 10 12 13 14 12 9 9 8 8 8 6 7 7 9 10 8 8 9 7 6 9 8 7 6 6 7 8 9 9 9 9 10 9 10 9 7 8 10 11 12 13 14 14 10 8 7 9 12 10 7 3 2 3 2 3 4 5 2 6 2 6 6 7 7 6 5 5 5 4 3 4 3 4 4 5 4
10 7 7 9 10 9 10 11 9 8 10 12 14 11 9 9 11 11 11 11 11 10 9 9 8 8 9 10 10 7 9 8 7 6 6 7 7 9 11 10 9 8 8 8 9 11 11 12 11 13 11 10 9 9 10 9 6 8 6 7 3 3 3 4 7 2 5 2 6 6 7 8 7 7 8 7 6 5 6 4 5 5 6 5 6
7 7 7 8 10 10 10 11 9 9 10 11 13 12 11 11 12 13 12 13 13 12 11 11 10 9 9 10 9 8 7 10 8 8 8 7 7 7 9 9 8 8 7 9 9 8 7 7 6 9 7 8 10 11 10 9 12 11 12 10 5 2 3 5 3 4 3 3 3 4 4 6 5 8 8 8 8 7 6 6 7 7 6 7 7
5 6 7 7 7 8 9 10 9 10 10 12 12 12 12 12 12 12 12 9 11 10 9 9 10 10 10 8 9 9 9 11 11 10 10 9 7 8 9 10 10 9 8 9 8 9 11 10 10 9 10 8 9 8 6 8 9 9 10 10 9 8 5 4 2 0 6 8 10 7 7 3 7 10 10 9 6 6 7 6 7 8 8 8 9
4 5 5 6 7 8 10 11 11 10 10 12 12 13 14 11 12 13 13 11 10 9 9 9 10 9 10 10 9 9 9 10 11 11 11 11 11 9 8 9 10 10 7 9 10 10 9 10 10 10 10 10 7 8 13 9 8 9 9 8 9 7 4 5 5 5 5 7 11 6 5 8 8 12 9 10 9 10 9 8 8 9 10 9 8
2 4 5 6 7 8 9 11 11 10 11 12 13 14 13 13 12 13 14 14 13 12 11 9 7 6 8 11 10 9 8 7 7 8 11 11 11 10 9 9 9 9 9 9 9 9 9 10 11 12 12 12 10 10 14 13 8 7 9 8 10 10 10 13 15 10 10 8 5 11 10 8 12 11 8 11 7 8 7 8 9 10 8 9 8
Wind_Direction
158 142 135 124 127 117 110 105 99 96 91 91 90 91 82 78 79 78 87 99 87 89 102 98 82 82 82 85 85 89 91 82 75 77 78 80 82 79 84 81 79 88 88 83 79 77 75 75 78 78 76 75 74 73 73 74 72 71 67 65 63 62 61 59 66 68 67 72 76 77 77 78 78 77 75 72 69 64 61 68 70 70 70 67 68
156 145 141 132 127 120 116 109 103 96 96 94 90 87 91 94 90 88 84 94 115 97 81 89 96 91 88 87 88 88 90 89 86 80 79 80 80 86 81 78 80 77 74 69 76 80 79 77 79 79 78 80 80 80 80 78 76 73 71 70 68 66 64 61 59 65 74 74 75 76 76 77 78 79 77 75 70 67 65 66 67 73 72 70 67
147 150 139 129 125 121 117 112 108 105 100 94 94 98 94 82 83 84 97 91 77 92 97 100 102 98 95 92 96 94 87 86 84 78 86 80 77 81 86 88 86 87 86 87 83 81 80 80 80 79 81 82 83 82 81 79 77 77 77 77 74 71 66 62 58 51 67 87 89 86 78 73 76 77 77 77 74 70 71 71 69 68 71 71 69
147 146 140 123 123 122 118 113 108 104 102 101 101 96 94 91 91 91 97 112 113 93 97 98 100 102 97 96 97 94 90 87 86 88 85 86 84 82 88 88 86 84 83 82 83 83 85 85 83 83 83 82 82 82 81 81 81 81 80 79 78 75 67 64 59 54 61 68 73 78 78 78 71 76 80 79 75 72 70 71 73 73 72 70 69
145 144 144 140 137 128 122 115 113 110 108 107 104 106 107 106 99 89 90 83 80 96 108 115 110 103 99 99 100 94 92 93 92 93 90 88 82 82 86 85 81 83 85 87 87 85 83 81 83 83 82 83 84 84 84 84 85 84 83 80 77 73 67 62 59 63 65 69 76 82 80 79 74 68 79 77 75 71 69 72 71 71 71 70 68
146 148 149 144 136 128 124 121 117 114 110 108 106 102 100 100 100 103 102 106 106 86 82 94 100 106 105 102 97 95 97 95 92 86 85 83 82 76 76 82 87 86 87 87 89 90 88 86 85 85 86 86 88 88 89 87 86 85 84 82 75 69 61 57 62 73 81 80 80 81 82 78 76 68 77 80 81 77 75 72 70 70 69 70 69
148 150 148 145 140 128 129 125 120 116 111 107 105 105 103 102 105 104 99 91 77 88 86 90 105 108 107 106 102 87 86 90 91 88 85 82 78 78 79 81 85 86 85 86 87 90 89 88 87 86 86 87 88 89 89 88 86 85 82 79 74 69 65 64 62 63 66 77 80 80 80 78 76 76 76 80 81 80 73 70 70 68 67 68 68
146 153 152 145 137 130 131 128 123 117 113 111 110 105 103 97 102 109 103 93 90 83 87 97 114 114 115 115 106 103 101 97 95 89 86 89 92 93 95 87 83 84 83 86 87 88 90 88 86 84 83 86 88 89 90 88 87 85 82 79 73 66 71 73 69 65 71 77 79 81 79 79 77 70 72 72 77 77 73 71 71 70 68 66 64
153 156 151 144 131 126 132 131 127 121 115 110 109 110 105 104 103 102 105 98 90 98 100 88 108 116 112 110 109 101 101 98 94 95 91 88 83 83 84 81 81 83 85 86 86 87 87 90 87 87 88 86 88 92 91 90 87 84 86 80 73 71 70 72 78 80 76 75 73 74 78 80 76 74 71 73 73 73 75 75 73 71 72 67 65
156 156 152 151 137 130 138 137 131 123 117 115 113 112 110 110 110 105 96 98 101 99 90 89 102 114 109 105 105 105 98 99 101 96 93 92 91 88 87 90 90 89 90 92 94 88 85 85 86 85 86 91 93 93 93 90 90 90 87 83 78 78 77 78 80 78 80 80 76 74 68 73 77 76 78 76 77 77 75 73 74 71 74 74 71
159 156 156 151 138 136 145 141 134 127 123 119 116 114 115 114 113 114 108 94 81 71 92 90 101 102 94 102 103 107 107 105 99 96 92 91 78 81 82 79 80 82 83 88 87 88 89 88 88 88 89 91 91 93 93 92 93 93 91 86 79 74 80 74 80 82 82 83 85 83 78 72 78 81 84 81 80 79 77 76 75 76 75 76 75
160 155 159 149 132 145 146 142 138 131 128 123 119 118 116 115 117 117 111 103 92 89 91 84 91 99 95 96 102 102 104 105 104 104 103 95 90 86 89 90 88 84 86 85 88 91 92 90 89 91 92 93 92 90 91 93 93 93 91 82 76 77 79 84 86 84 83 83 78 78 77 77 76 77 78 82 82 81 80 79 78 76 76 77 77
160 158 163 154 151 140 147 143 139 134 130 126 122 121 121 124 118 118 115 106 97 91 99 96 97 103 107 99 98 101 103 106 106 104 101 96 97 98 97 95 91 92 93 93 93 92 95 97 95 94 95 93 92 91 93 97 97 92 86 82 73 78 86 98 92 89 86 82 83 82 80 80 79 79 79 79 79 77 77 78 79 79 79 79 78
160 160 165 163 152 139 143 144 142 136 134 130 125 125 124 120 120 116 117 114 107 99 105 100 101 105 110 106 101 102 104 106 107 107 103 103 100 96 97 97 93 89 89 89 91 95 96 99 99 99 100 96 93 98 102 100 94 86 82 81 77 78 94 90 93 89 88 83 79 82 84 82 82 83 84 84 82 81 80 77 76 80 80 80 78
163 163 165 165 151 160 140 142 142 136 134 132 128 127 127 125 121 121 119 119 115 105 99 111 104 110 109 108 104 104 105 105 105 105 104 104 106 104 98 96 94 89 91 94 95 96 97 100 103 104 103 103 102 103 105 99 92 89 86 80 64 62 83 102 98 92 87 88 88 86 82 87 89 88 84 80 79 79 80 81 80 80 80 80 79
164 165 168 166 162 159 163 144 138 136 134 128 129 128 126 127 125 124 123 121 120 111 97 98 117 117 118 113 110 108 106 106 106 100 82 97 109 106 104 98 96 96 96 96 97 98 100 101 103 106 106 107 107 107 100 91 90 87 85 75 59 61 59 90 98 91 89 91 87 82 85 82 84 87 85 85 86 86 86 84 82 80 79 77 74
162 167 172 167 165 172 167 167 145 133 131 130 127 124 125 126 126 125 125 120 117 114 101 88 91 103 105 112 105 102 100 105 102 74 82 85 94 101 104 107 103 104 100 96 97 100 104 107 107 108 110 109 111 107 97 92 90 87 81 75 67 68 65 81 85 89 95 87 88 89 91 91 90 86 86 86 83 82 81 81 79 79 79 78 78
168 171 169 173 174 177 175 166 156 166 149 136 125 127 126 124 122 120 120 115 102 92 87 87 89 84 81 80 88 87 87 70 51 42 47 67 90 103 108 107 107 103 102 104 106 107 105 107 108 110 111 112 112 106 96 94 91 87 83 76 76 69 70 88 97 96 95 101 99 92 92 87 88 89 86 86 85 85 84 84 85 83 78 75 76
177 181 175 177 178 176 178 174 175 173 164 162 152 134 125 120 120 119 107 94 91 97 94 94 93 91 88 85 84 79 69 63 60 47 58 78 85 85 90 101 110 108 108 108 110 107 111 109 108 111 112 112 109 104 97 94 96 95 92 83 90 81 109 104 95 106 109 105 93 102 104 113 105 100 91 82 83 85 84 79 79 79 80 83 84
183 187 188 183 178 185 185 180 182 179 173 166 154 147 128 125 120 112 107 105 103 101 98 97 95 94 93 96 96 102 93 76 70 71 54 67 82 95 92 107 112 111 107 110 112 113 113 113 111 114 112 108 107 101 91 93 97 99 91 112 116 151 106 100 107 100 96 97 103 108 97 94 99 92 88 86 84 83 86 86 84 81 81 81 81
187 192 195 190 187 190 189 186 190 186 178 170 161 151 131 123 116 103 106 106 107 105 102 108 109 108 111 110 123 125 125 123 128 97 78 75 75 81 76 85 97 104 107 109 114 115 116 119 121 113 108 103 98 92 84 94 100 105 99 118 189 119 108 113 112 106 102 100 105 105 106 120 92 96 99 99 96 92 89 90 86 86 80 84 82
183 190 197 195 193 194 194 193 192 192 182 172 169 155 144 159 140 139 131 123 119 126 137 131 128 124 124 144 136 133 134 132 120 107 119 119 88 78 78 84 94 94 101 107 110 110 109 114 111 113 116 115 127 117 94 79 79 93 110 193 152 116 120 117 110 109 109 114 113 123 142 107 101 99 96 100 100 92 82 78 86 85 84 85 87
188 190 197 195 195 193 197 197 196 193 189 182 176 163 169 169 157 154 145 142 136 147 137 143 145 143 147 141 141 128 132 127 103 73 83 63 69 70 75 75 78 81 83 89 100 104 105 108 108 119 120 155 166 136 130 129 122 128 158 159 138 134 131 121 120 124 120 117 119 128 111 108 112 107 111 96 92 93 99 98 94 85 88 89 92
186 188 192 195 195 198 198 202 201 191 192 190 181 176 180 174 165 161 161 162 159 150 146 146 146 147 149 153 132 129 134 116 103 115 120 122 91 85 88 86 85 86 97 91 76 76 85 88 100 116 154 178 144 140 144 144 148 151 136 133 144 142 138 134 121 120 119 119 118 117 135 123 109 118 112 108 110 106 106 105 94 91 91 91 92
187 183 187 189 199 198 197 201 202 199 198 195 190 183 174 179 176 171 168 170 171 160 154 151 145 150 154 145 132 136 144 143 152 148 158 158 153 146 144 148 144 128 124 139 134 123 148 152 145 179 153 140 130 124 137 143 140 141 129 117 125 139 146 137 134 125 124 125 130 142 108 108 122 122 114 110 107 112 102 94 98 97 99 99 93
176 183 188 187 193 200 198 199 204 203 199 201 197 184 173 177 170 173 172 173 173 162 157 161 153 159 159 140 144 146 153 151 157 154 153 168 167 171 172 169 164 152 148 144 151 161 161 160 164 162 146 130 118 124 130 140 141 134 121 103 118 115 116 136 138 134 131 131 136 138 123 127 132 123 120 119 124 117 121 116 109 105 103 100 101
191 192 185 190 192 193 196 200 202 205 203 203 202 188 183 174 161 170 172 175 179 160 164 159 160 158 157 155 161 162 162 164 162 162 157 172 179 179 178 176 177 169 179 156 141 168 171 165 166 152 135 123 117 115 113 108 114 117 106 76 63 67 80 84 139 139 138 139 136 124 120 133 135 132 130 131 129 131 124 118 116 114 109 108 108
199 199 194 192 188 193 192 196 203 206 206 205 207 201 197 187 166 163 172 172 171 168 164 166 153 165 172 171 172 169 170 170 172 172 168 169 178 179 182 171 175 157 164 160 154 173 177 164 156 144 140 135 131 128 127 121 114 114 112 104 87 78 52 50 76 138 142 140 142 131 135 139 137 138 139 139 137 125 124 125 123 124 116 115 112
207 201 199 199 197 191 191 195 197 204 207 207 210 209 203 198 166 173 192 167 193 177 168 161 170 173 177 173 177 175 178 176 178 178 177 176 162 167 171 176 168 162 165 165 166 175 177 168 160 160 155 150 146 142 135 131 135 119 118 105 95 95 96 109 110 94 148 148 152 143 148 145 148 137 135 138 134 129 137 131 131 131 123 121 119
208 206 203 201 198 197 192 190 198 200 203 205 210 208 207 205 181 180 197 172 199 191 163 172 177 175 180 184 179 192 187 184 179 181 184 175 170 168 177 174 178 173 177 174 175 182 179 173 167 163 160 156 156 144 152 139 120 106 93 102 96 94 64 49 67 97 123 148 152 128 56 169 162 155 148 145 145 148 143 135 135 133 127 129 127
206 207 206 206 194 192 200 194 192 200 201 203 208 211 210 207 188 181 190 192 199 182 174 172 175 177 179 176 179 189 192 191 183 184 190 180 181 180 188 180 183 184 187 180 177 189 183 181 175 167 164 161 151 148 163 141 122 98 65 55 52 46 42 46 58 62 112 117 141 143 93 34 166 171 166 163 154 154 150 148 146 138 139 138 136
209 210 206 202 207 203 202 202 200 195 204 205 205 209 213 213 196 200 206 206 204 198 184 182 180 177 174 177 181 184 194 194 188 187 193 188 190 191 188 187 192 186 189 183 180 187 187 174 167 164 155 156 150 152 145 147 136 121 106 101 87 79 58 81 99 63 54 53 95 135 145 129 55 5 248 177 170 167 157 165 151 159 150 145 143
211 210 208 203 209 209 209 206 202 202 207 213 209 209 210 214 203 208 197 194 199 204 190 182 188 181 173 176 179 182 189 196 192 193 191 194 193 191 192 194 193 186 188 181 177 179 179 170 165 164 158 156 153 149 145 145 133 127 122 86 78 56 23 3 21 22 21 57 108 115 145 141 106 71 13 185 162 170 184 157 168 166 158 157 150
204 206 207 209 203 203 206 211 214 215 210 214 219 219 219 213 207 193 181 187 190 195 189 190 195 187 180 184 185 182 189 193 192 191 190 191 192 195 194 196 196 183 177 172 182 187 185 176 167 173 173 174 167 159 162 156 137 122 113 81 67 47 26 41 30 32 346 357 120 142 155 156 153 158 123 40 12 194 176 173 174 177 172 169 164
205 204 208 209 205 202 194 201 204 212 204 213 216 219 221 220 216 211 196 192 195 198 191 204 200 196 187 186 190 187 193 196 191 188 191 195 193 200 202 202 191 180 176 180 187 188 192 183 176 179 172 182 170 163 170 160 157 148 115 82 84 82 128 147 144 116 34 341 306 149 162 155 144 160 175 175 110 23 327 192 192 180 180 172 173
208 207 207 208 209 212 204 205 196 203 196 201 211 219 219 226 225 205 202 195 193 198 204 202 192 186 189 190 193 189 191 195 190 191 194 199 201 205 202 196 179 178 182 175 184 186 189 189 192 187 174 177 169 170 172 151 139 112 101 119 115 237 179 149 86 21 355 285 175 176 204 116 120 103 314 175 152 46 16 31 104 178 180 179 180
209 207 205 206 214 212 211 214 209 202 204 197 205 213 216 218 218 199 205 202 195 196 201 197 181 180 189 189 181 190 193 194 197 196 200 198 205 210 202 184 168 180 179 178 186 188 180 186 191 206 202 176 172 160 151 138 135 128 79 40 31 18 41 11 334 270 263 244 188 166 169 122 102 291 235 131 161 149 45 28 56 49 36 193 186
211 213 210 207 209 211 213 217 218 215 212 205 202 207 216 219 211 213 204 207 211 201 197 190 194 201 202 196 183 198 199 198 201 203 207 199 197 196 176 165 165 168 176 177 180 168 176 178 178 200 216 185 179 168 161 129 118 117 80 48 13 352 7 305 313 295 273 229 220 203 154 163 157 197 200 289 189 142 142 84 70 66 52 39 112
210 210 211 211 210 212 215 215 218 219 219 220 220 219 218 229 230 220 213 216 210 205 200 198 199 209 211 206 187 195 194 201 205 205 210 192 178 170 153 153 151 161 163 179 180 158 148 192 180 179 185 241 207 151 131 131 130 125 121 88 56 7 346 340 321 301 309 330 340 349 319 309 331 328 340 245 187 165 169 156 158 160 90 26 40
210 209 210 209 211 213 215 218 216 217 217 217 217 218 214 211 213 209 219 209 204 197 201 208 201 204 205 204 202 200 194 201 202 202 208 181 168 169 165 150 162 153 164 184 195 190 185 181 199 181 176 147 88 130 136 142 121 85 83 90 94 52 344 329 311 315 296 297 321 310 293 301 270 222 277 248 189 205 182 170 160 155 138 86 26
208 209 206 209 209 210 210 216 214 213 213 208 207 208 211 203 202 205 209 208 208 197 202 204 212 209 201 201 206 211 204 200 207 199 196 187 190 171 154 176 179 181 184 200 196 187 180 176 187 189 173 162 173 165 160 150 140 113 21 339 331 144 125 309 301 290 272 259 264 275 285 277 244 234 218 251 238 241 307 210 178 167 182 160 158
209 205 207 208 207 206 209 213 211 212 215 215 209 204 208 211 208 208 201 205 205 202 213 209 203 203 205 201 201 204 207 200 190 201 194 192 187 179 187 191 189 192 196 168 155 182 178 186 177 172 188 172 169 166 173 136 198 194 181 201 242 226 200 198 243 244 248 242 229 265 277 263 241 221 240 246 238 250 282 274 230 219 204 194 184
209 204 208 205 205 205 208 209 211 209 212 212 212 213 211 212 216 218 215 218 220 219 225 224 206 200 204 204 205 206 200 195 192 200 200 200 199 193 193 188 188 179 171 189 194 194 192 189 180 181 166 187 135 158 184 206 175 129 73 61 237 237 234 251 211 231 207 224 228 248 251 262 260 264 264 259 236 226 225 284 287 262 245 229 204
207 203 204 204 202 204 205 204 206 210 212 210 208 215 214 210 219 232 225 228 232 230 227 218 210 209 211 202 206 205 204 204 207 209 208 207 198 195 184 181 175 176 187 194 199 202 188 172 173 187 158 152 189 196 203 209 184 146 189 211 224 210 281 233 209 201 166 205 213 228 223 237 245 241 243 236 225 232 216 205 242 244 243 237 226
206 207 201 200 201 201 200 200 200 205 210 208 206 203 187 181 159 84 86 91 65 210 211 220 216 212 204 203 213 208 208 202 201 203 204 214 210 196 176 189 184 187 196 209 206 199 187 184 173 175 186 190 192 191 199 212 221 262 151 131 110 235 228 332 164 217 151 203 221 211 214 226 234 233 234 238 237 234 236 241 230 245 241 248 238
212 210 205 201 200 199 197 195 197 199 209 208 203 195 184 179 170 173 184 194 206 199 206 207 197 206 215 211 195 212 211 211 200 199 202 204 206 202 194 187 194 193 201 206 196 199 196 187 189 191 197 207 200 171 193 209 221 228 234 310 95 210 203 179 123 247 86 246 230 196 210 220 225 228 224 221 220 217 208 231 229 231 237 237 231
218 202 195 199 202 200 195 191 196 198 206 203 194 185 181 190 192 199 199 203 209 219 217 214 213 216 227 227 223 206 216 214 207 202 201 202 207 208 206 201 196 194 191 197 200 199 198 197 193 199 202 197 194 196 193 192 201 245 246 243 203 182 263 146 213 65 291 187 224 213 219 210 214 221 225 222 213 202 199 200 225 228 230 228 229
207 192 198 198 199 196 188 190 195 199 204 195 191 187 190 195 197 205 212 216 217 222 216 219 221 224 220 218 218 223 214 221 218 211 208 202 205 208 205 205 199 195 188 201 202 198 194 205 189 205 204 198 201 205 195 183 183 211 206 219 215 239 261 289 307 231 216 231 219 219 233 209 207 232 227 223 213 208 206 201 211 218 220 223 225
204 198 197 191 186 186 183 186 194 199 200 191 187 187 194 199 202 206 212 216 220 225 226 220 216 212 215 212 216 221 223 222 222 222 216 212 205 211 207 208 209 205 194 211 211 207 209 199 193 199 202 198 199 209 201 196 196 212 185 218 220 225 226 246 280 234 227 236 253 195 216 170 229 245 230 216 207 200 205 204 202 209 215 221 216
196 192 183 173 176 175 182 186 196 199 196 191 188 191 197 199 203 206 211 212 213 218 215 212 214 212 219 219 220 223 224 222 220 222 223 224 228 220 209 209 211 214 196 209 206 205 198 202 200 199 202 202 201 205 219 217 201 215 204 192 191 199 217 244 225 225 262 241 249 229 205 185 209 234 205 205 202 213 212 214 208 206 215 215 212
167 179 169 172 169 177 182 191 196 197 195 193 191 192 196 200 205 207 211 214 213 214 217 210 195 187 209 220 220 221 218 214 207 219 227 229 229 230 225 216 212 211 202 204 205 202 202 199 206 204 206 200 204 202 218 228 217 213 222 212 212 203 191 213 229 215 217 227 244 253 243 212 224 251 223 199 189 210 204 212 217 210 205 211 211